985  
ASUS44 KSJT 201615  
RWRSJT  
WEST CENTRAL TEXAS REGIONAL WEATHER ROUNDUP  
NATIONAL WEATHER SERVICE SAN ANGELO TX  
1100 AM CDT FRI SEP 20 2019  
 
NOTE: "FAIR" INDICATES FEW OR NO CLOUDS BELOW 12,000 FEET WITH NO  
SIGNIFICANT WEATHER AND/OR S TO VISIBILITY
.  
 
TXZ049-054-064>066-071>073-076>078-098-099-113-114-127-128-139-140-  
154-155-168>170-201700   
..LOCATIONS ACROSS WEST CENTRAL TEXAS
 
 
 
CITY SKY/WX TMP DP RH WIND PRES REMARKS
 
SAN ANGELO MOSUNNY 86 70 58 S13G23 29.97R  
ABILENE SUNNY 84 70 62 S17G23 29.96S  
DYESS AFB PTSUNNY 86 68 54 S20 29.96R  
JUNCTION CLOUDY 80 70 71 S13G20 30.01S  
SWEETWATER MOSUNNY 84 70 63 S14 30.00  
BROWNWOOD NOT AVBL  
COLEMAN SUNNY 84 67 57 S14G21 29.98S  
SONORA PTSUNNY 79 70 73 S12G17 30.04S  
OZONA CLOUDY 79 68 69 S16 30.02R  
BRADY PTSUNNY 82 68 61 S16G22 30.00R  

 
 
TEXAS PANHANDLE/OKLAHOMA PANHANDLE  
 
CITY SKY/WX TMP DP RH WIND PRES REMARKS
 
AMARILLO PTSUNNY 68 62 81 SE12 30.02S  
BORGER MOSUNNY 71 63 75 S6 30.01F  
CANADIAN LGT RAIN 69 67 92 SW5 30.00F  
DALHART PTSUNNY 67 62 84 S12 30.03F  
DUMAS MOSUNNY 65 62 91 S10 30.03R  
GUYMON NOT AVBL  
HEREFORD SUNNY 72 66 83 SE9 30.04F  
PAMPA PTSUNNY 66 64 93 SE8 30.02F  
PERRYTON PTSUNNY 65 61 86 S15 30.00  

 
 
SOUTHERN PANHANDLE/SOUTH PLAINS/ROLLING PLAINS  
 
CITY SKY/WX TMP DP RH WIND PRES REMARKS
 
LUBBOCK PTSUNNY 75 66 73 NE8 30.02F  
SNYDER SUNNY 81 71 70 S16G22 29.98  
CHILDRESS CLOUDY 73 69 87 E5 30.01S  
SEMINOLE MOSUNNY 79 64 60 S10G16 30.04R  

 
 
PERMIAN BASIN  
 
CITY SKY/WX TMP DP RH WIND PRES REMARKS
 
MIDLAND SUNNY 86 69 56 S21 29.97S  
ODESSA SUNNY 83 67 58 S20 29.99R  
WINK PTSUNNY 83 62 49 S17 29.95S  

 
 
FAR WEST/SOUTHWEST MOUNTAINS/TRANS PECOS  
 
CITY SKY/WX TMP DP RH WIND PRES REMARKS
 
ALPINE MOSUNNY 79 58 48 SW6 30.12R  
DRYDEN N/A 83 70 64 SE15G22 29.96R  
EL PASO MOSUNNY 80 57 45 S8 30.01R  
FORT STOCKTON MOSUNNY 80 67 64 SE17G28 29.99R  
GUADALUPE PASS MOSUNNY 68 61 78 NE10 30.13R  
MARFA SUNNY 76 58 53 CALM 30.11R  
PECOS PTSUNNY 78 60 55 CALM 29.97R  

 
 
DALLAS/FORT WORTH METROPLEX  
 
CITY SKY/WX TMP DP RH WIND PRES REMARKS
 
DFW AIRPORT PTSUNNY 84 73 69 S14 29.96R  
FTW MEACHAM CLOUDY 86 74 67 S14G23 29.96R  
DAL-EXECUTIVE CLOUDY 86 73 65 S17G26 29.97R  
GRAND PRAIRIE PTSUNNY 84 72 65 S7G18 29.99R  
ADDISON NOT AVBL  
MESQUITE PTSUNNY 82 75 78 S15G25 29.99R  
LANCASTER PTSUNNY 84 74 73 S15G21 29.99R  

 
 
NORTH CENTRAL TEXAS  
 
CITY SKY/WX TMP DP RH WIND PRES REMARKS
 
SHRMAN/DENISON CLOUDY 82 77 83 MISG 29.99R  
GAINESVILLE CLOUDY 82 73 74 S18 29.98S  
BRIDGEPORT CLOUDY 83 71 67 SW7 29.98  
DENTON CLOUDY 84 73 69 S16G24 29.97R  
WAXAHACHIE CLOUDY 83 74 73 S16G24 29.99S  
GRANBURY PTSUNNY 88 71 57 SE15G22 29.97S  

 
 
WESTERN NORTH TEXAS  
 
CITY SKY/WX TMP DP RH WIND PRES REMARKS
 
WICHITA FALLS CLOUDY 81 74 79 S9 29.95R  
VERNON CLOUDY 78 70 77 CALM 29.98  
BRECKENRIDGE SUNNY 87 69 53 MISG 29.96R  
COMANCHE SUNNY 87 69 55 S17G24 29.98S  

 
 
CENTRAL AND SOUTH CENTRAL TEXAS  
 
CITY SKY/WX TMP DP RH WIND PRES REMARKS
 
AUSTIN/BERGSTM MOSUNNY 89 73 59 S14 29.98S  
WACO MOSUNNY 88 71 57 S16 29.98S  
HILLSBORO CLOUDY 87 74 64 S18G26 29.98S  
TEMPLE MOSUNNY 89 73 59 S24 29.98S  
KILLEEN-GRAY MOSUNNY 86 69 56 S21G29 29.98R  
FORT HOOD SUNNY 85 69 58 S16 29.99R  
GEORGETOWN PTSUNNY 86 72 62 S13 30.01S  
LAGO VISTA FAIR 85 70 61 S14 30.02S  
SAN MARCOS PTSUNNY 89 72 56 S14 30.00S  
NEW BRAUNFELS MOSUNNY 88 72 58 S15 29.98S  
RANDOLPH AFB PTSUNNY 86 71 60 S12 29.99  
SAN ANTONIO PTSUNNY 86 69 56 SE15 29.99S  
STINSON MOSUNNY 92 66 42 S20 29.96R  
PLEASANTON NOT AVBL  
LA GRANGE MOSUNNY 87 77 70 S12 29.98S  
GIDDINGS MOSUNNY 88 75 66 S12 30.01S  

 
 
EAST TEXAS  
 
CITY SKY/WX TMP DP RH WIND PRES REMARKS
 
PARIS TSTM 73 73 100 SE14G23 30.01R FOG  
CLARKSVILLE NOT AVBL  
TYLER CLOUDY 83 76 79 S15 30.02S  
LONGVIEW CLOUDY 80 77 90 SE12 30.04S  
PALESTINE MOSUNNY 85 76 75 S13 30.03S  
NACOGDOCHES N/A N/A N/A N/A MISG N/A  

 
 
TEXAS HILL COUNTRY AND EDWARDS PLATEAU  
 
CITY SKY/WX TMP DP RH WIND PRES REMARKS
 
LLANO MOSUNNY 86 68 54 S14G22 30.02S  
HORSESHOE BAY FAIR 88 66 48 S13G23 30.00S  
KERRVILLE CLOUDY 79 70 74 SE9 30.02S  
FREDERICKSBRG CLOUDY 81 66 60 S13 30.02S  
ROCKSPRINGS CLOUDY 73 72 94 S15 30.07R  
HONDO MOSUNNY 87 70 56 S20 29.98R  
UVALDE CLOUDY 83 72 68 S15 29.97S  
DEL RIO CLOUDY 82 73 74 SE13 29.93R  

 
 
SOUTHEAST TEXAS  
 
CITY SKY/WX TMP DP RH WIND PRES REMARKS
 
COLLEGE STN MOSUNNY 87 76 69 S12 30.01R  
CALDWELL PTSUNNY 87 74 65 S10 30.01S  
CROCKETT PTSUNNY 84 77 79 SE12 30.06S  
BRENHAM PTSUNNY 87 76 67 S9 30.01F  
HUNTSVILLE PTSUNNY 82 75 79 VRB7G17 30.03S  
CONROE PTSUNNY 84 78 82 SE7 30.03R  
HOUSTON BUSH TSTM 86 77 74 SW9 30.01R  
HOUSTON HOBBY PTSUNNY 87 75 67 SE16 30.00R  
PERLAND FAIR 86 72 62 SE15 30.03R  
WHARTON PTSUNNY 87 76 69 SE13 30.00S  

 
 
THE UPPER TEXAS COAST  
 
CITY SKY/WX TMP DP RH WIND PRES REMARKS
 
ORANGE PTSUNNY 79 76 91 CALM 30.08S  
PORT ARTHUR CLOUDY 82 75 79 SW5 30.05S  
GALVESTON PTSUNNY 83 75 77 SE17G23 30.02S  
ANGLETON PTSUNNY 85 77 77 S14 30.01R  
BAY CITY CLOUDY 89 80 76 S13 30.00R  

 
 
TEXAS COASTAL BEND, RIO GRANDE PLAINS DEEP SOUTH TEXAS  
 
CITY SKY/WX TMP DP RH WIND PRES REMARKS
 
VICTORIA PTSUNNY 88 74 63 S15 29.97S  
BEEVILLE FAIR 92 77 61 MISG N/A  
ROCKPORT SUNNY 91 78 65 SE16G22 29.95S  
PORT ARANSAS PTSUNNY 88 78 73 SE16G22 29.97S  
PORT LAVACA NOT AVBL  
CORPUS CHRISTI PTSUNNY 92 75 57 S17G25 29.94S  
KINGSVILLE NAS PTSUNNY 91 75 59 S15 29.94  
COTULLA MOSUNNY 89 70 53 S14G26 29.94R  
LAREDO PTSUNNY 88 72 58 SE17 29.92S  
BROWNSVILLE FAIR 89 75 63 SE17 29.93S  
PORT ISABEL FAIR 91 74 57 SE23G30 29.93R  
HEBBRONVILLE SUNNY 87 66 50 S12G22 29.95S  
MCALLEN MOSUNNY 92 73 53 SE18G26 29.93S  
WESLACO NOT AVBL  
FALFURRIAS MOSUNNY 91 75 59 S17G25 29.93S  
EDINBURG MOSUNNY 87 72 59 S16G24 29.94S  

 
 
 
CLICK HERE TO GO TO PREVIOUS BULLETINS.

The Nexlab TX Page Main Text Page